Regional Weather Roundup
Issued by NWS

Current Version | Previous Version | Text Only | Print | Product List | Glossary On
Versions: 1 2 3 4 5 6 7 8 9 10 11 12 13 14 15 16 17 18 19 20 21 22 23 24 25 26 27 28 29 30 31 32 33 34 35 36 37 38 39 40 41 42 43 44 45 46 47 48 49 50
000
ASUS45 KABQ 270710
RWRNM
WEATHER ROUNDUP FOR NEW MEXICO
NATIONAL WEATHER SERVICE ALBUQUERQUE NM
1200 AM MST FRI FEB 27 2015

NOTE: "FAIR" MEANS FEW OR NO CLOUDS BELOW 12,000 FEET AGL WITH NO
       SIGNIFICANT WEATHER OR OBSTRUCTIONS TO VISION.

      THIS PRODUCT IS RELEASED AS TWO VERSIONS.  ONE VERSION NEAR
      THE TOP OF THE HOUR CONTAINING PRELIMINARY DATA FROM ALBUQUERQUE
      AND OTHER STATIONS.  A FINAL VERSION WITH ADDITIONAL DATA IS
      ISSUED ABOUT 10 MINUTES AFTER THE HOUR.

NMZ501-503-504-510>518-270800-
NORTHWEST PLATEAU/NORTHCENTRAL MOUNTAINS

CITY           SKY/WX    TMP DP  RH WIND       PRES   REMARKS
FARMINGTON     CLOUDY    31  30  96 W3        29.84S
LOS ALAMOS     LGT SNOW  16  16 100 S12       29.93S WCI   3
SANTA FE       LGT SNOW  18  12  77 SE22G31   29.96S WCI   1
TAOS           CLOUDY    19  12  73 SW10      29.89F WCI   8
ANGEL FIRE     LGT SNOW  10   6  82 S15       29.89F WCI  -6

$$
NMZ402-403-502-505>509-270800-
WESTCENTRAL MOUNTAINS/SOUTHWEST MOUNTAINS

CITY           SKY/WX    TMP DP  RH WIND       PRES   REMARKS
GALLUP         PTCLDY    33  28  81 CALM      29.87S
GRANTS         CLOUDY    27  26  95 S13       29.90S WCI  16
SILVER CITY    CLOUDY    37  25  60 S14       29.95S WCI  29

$$
NMZ407-409-411-412-270800-
SOUTHERN DESERTS

CITY           SKY/WX    TMP DP  RH WIND       PRES   REMARKS
LORDSBURG      FAIR      43  28  56 SE18G24   29.90S
DEMING         CLOUDY    37  26  64 MISG      29.94S
LAS CRUCES     CLOUDY    34  25  71 SE15G21   29.97F WCI  24
HOLLOMAN AFB   LGT SNOW  34  30  86 W5        30.00S WCI  30
ALAMOGORDO     LGT SNOW  32  32 100 MISG      30.01F
T OR C         MOCLDY    34  34 100 CALM      29.92F

$$
NMZ519>523-270800-
CENTRAL VALLEYS/CENTRAL HIGHLANDS

CITY           SKY/WX    TMP DP  RH WIND       PRES   REMARKS
ALBUQUERQUE    SNOW      23  20  88 E23       29.96S VSB 1/2 WCI   7
DOUBLE EAGLE   LGT SNOW  24  22  93 CALM      29.94F VSB 3/4
MORIARTY ARPT  CLOUDY    19  13  80 SE5       30.03R WCI  12
CLINES CORNERS CLOUDY    14  10  84 E22       29.94F WCI  -4
BELEN          LGT SNOW  27  26  97 S9        29.96S VSB 1   WCI  18
SOCORRO        LGT SNOW  32  30  93 SW3       29.96S

$$
NMZ524>526-539-540-270800-
SOUTHCENTRAL MOUNTAINS

CITY           SKY/WX    TMP DP  RH WIND       PRES   REMARKS
RUIDOSO        LGT SNOW  18  16  93 MISG      30.01F

$$
NMZ527>531-270800-
NORTHEAST HIGHLANDS/NORTHEAST PLAINS

CITY           SKY/WX    TMP DP  RH WIND       PRES   REMARKS
LAS VEGAS      SNOW      13   9  84 SE9       30.01F VSB 1/2 WCI   1
RATON          LGT SNOW  13  10  88 S12       30.02F FOG     WCI  -1
CLAYTON        LGT SNOW  13  10  88 E13       30.16S FOG     WCI  -2

$$
NMZ532>537-270800-
EASTCENTRAL PLAINS

CITY           SKY/WX    TMP DP  RH WIND       PRES   REMARKS
TUCUMCARI      LGT SNOW  21  18  88 SE18      30.20R VSB 3/4 WCI   6
CANNON AFB     LGT SNOW  18  15  88 SE13      30.20R VSB 1   WCI   5
CLOVIS AIRPORT CLOUDY    18  12  79 SE14      30.22R WCI   4

$$
NMZ028-029-538-270800-
SOUTHEAST PLAINS

CITY           SKY/WX    TMP DP  RH WIND       PRES   REMARKS
ROSWELL        LGT SNOW  24  21  88 SE9       30.19S VSB 1   WCI  14
ARTESIA        MIX PCPN  25  23  93 SE14      30.21S WCI  13
CARLSBAD       CLOUDY    28  18  66 SE12      30.20F WCI  18
HOBBS          LGT RAIN  23  14  68 E15       30.20F WCI  10


$$


USA.gov is the U.S. government's official web portal to all federal, state and local government web resources and services.